Tracking 33165 objects as of 7-Feb-2026
HD Live streaming from Space Station
objects crossing your sky now

FREGAT R/B

Track FREGAT R/B now!


NORAD ID: 54032
Int'l Code: 2022-130B
Perigee: 19,234.3 km
Apogee: 19,370.5 km
Inclination: 64.3 °
Period: 682.3 minutes
Semi major axis: 25673 km
RCS: Unknown
Launch date: October 10, 2022
Source: Commonwealth of Independent States (former USSR) (CIS)
Launch site: PLESETSK MISSILE AND SPACE COMPLEX (PKMTR)

Note: This is a ROCKET BODY
Your satellite tracking list
Your tracking list is empty




NASA's NSSDC Master Catalog

Two Line Element Set (TLE):
1 54032U 22130B   26036.61669313 -.00000076  00000-0  00000+0 0  9997
2 54032  64.3499 320.0724 0026510 177.3689 182.6772  2.11046388 25614
Source of the keplerian elements: AFSPC